STARLINK-1598, 46160

Orbit data source: Space-Track

STARLINK-1598, 46160 is a payload satellite owned by SpaceX/Seattle (US) in LEO that was launched on Tue, 18 Aug 2020 UTC via an FALCON 9 launch vehicle from the Air Force Eastern Test Range (AFETR). Payload-class satellites include a variety of spacecraft equipped with specific instruments for various scientific and technological missions. These include communications satellites like Starlink; space stations such as the ISS; scientific satellites like the Hubble; Earth observation satellites from companies like Planet Labs, Umbra, and HawkEye 360; GPS; miniature CubeSats for education and research; and military/defense satellites.

Loading next visibility...
Identifier
46160, 2020-057AV
Orbit
LEO
Country
Flag of USUS
Related business
Manufacturer
SpaceX/Seattle
Mission
Partially operational Commercial Communications
Bus & Motor
STARLINK, Unknown motor
Mass
260 kg wet, ~248 kg dry
Launch date (UTC)
2020-08-18 (6 years ago)
Launch vehicle
FALCON 9
Launch site
Air Force Eastern Test Range (AFETR)
Object type
Payload
Rocket body
Debris
Shape & HBR
Box + 1 Pan, 10.1 m
Radar Cross Section
13.562 m², Large (>1 m²)

Expand to show TLE details & history
Last TLE update: 12 hours ago

TLE from 12 hours ago
0 STARLINK-1598
1 46160U 20057AV  26072.52375459  .00120471  00000-0  19392-2 0  9999
2 46160  53.0509 265.1637 0003704 231.8008 128.2668 15.52090857308373
Epoch: 2026-03-13T12:34Z
TLE epoch observation values (Epoch: 2026-03-13T12:34:12.396Z)
Latitude
Longitude
-94.54601°
Altitude
413.077 km
Speed
7.663 km/s
True Right ascension
17h 40m 39s
True Declination
0° 00' 00"
Sunlit
Object was in daylight at epoch
Visualization orbit readout
Latitude
Unknown
Longitude
Unknown
Altitude
Unknown
Speed
Unknown
Apparent Right ascension
Unknown
Apparent Declination
Unknown
Sunlit
N/A
Visualization observer readout
Local Sidereal Time
05:27:53
Azimuth
Unknown
Elevation
Unknown
Doppler factor
Unknown
Orbital elements
Apogee altitude
413.414 km
Perigee altitude
408.384 km
Semi-major axis
6,789.036 km
Eccentricity
0.00037
Inclination
53.0509°
RAAN
265.1637°
Arg. of periapsis
231.8008°
True anomaly
128.30012°
Mean anomaly
128.2668°
Eccentric anomaly
128.28346°
Mean motion
3.87999 °/min
Orbital period
92.78 mins
BSTAR
0.0019392
Loading maneuver chart data...
Computing Atmospheric mass density...
Loading historical data...
Loading historical data...
Loading historical data...
Loading historical data...
Loading historical data...
Loading historical data...
Loading historical data...

Documentation

Showing up to 5 results
|